Weather in Culiacán

Mexico     24°47′57″N   107°23′00″W
temp.,
°C
wind,
m/s
gust,
m/s
humid.,
%
clouds,
%
prec.,
mm/h
press.,
hPa
HPBL,
m
24 june, thu
thu2400:00+25sse2379100 0.0 1014199
03:00+24sse1287100 0.0 101349
06:00+23sse119088 0.0 101219
09:00+28sse226677 0.0 1013579
12:00+35ssw43395 0.0 10111836
15:00+35ssw754250 0.0 10091350
18:00+31ssw664759 0.1 1009883
21:00+27ssw346758 0.1 1011293
25 june, fri
fri2500:00+26s12748 1.1 101289
03:00+25se11779 0.0 101119
06:00+25sse117913 0.0 101017
09:00+29sse23615 0.0 1011724
12:00+35ssw334237 0.0 10101768
15:00+34ssw75422 0.0 10071140
18:00+32ssw544244 0.6 10071056
21:00+27ssw236953 2.6 1010110
26 june, sat
sat2600:00+25sse36802 3.1 1011239
03:00+25se238221 1.3 1010129
06:00+25ese128244 1.3 101036
09:00+29se11620 0.0 1010592
12:00+34s224291 0.0 10081574
15:00+36sw653792 0.0 10042038
18:00+33wsw654199 0.1 10041055
21:00+28wsw355576 0.4 1006288
27 june, sun
sun2700:00+27s1263100 0.4 1007168
03:00+26se256996 0.0 1005205
06:00+26ese237523 0.0 100679
09:00+29ese23618 0.0 1006811
12:00+35s224311 0.0 10051625
15:00+36sw854214 0.0 10021276
18:00+32sw66516 0.9 1002935
21:00+27se2372100 4.8 1005272
28 june, mon
mon2800:00+25n3390100 8.8 1005188
03:00+26wsw2284100 0.1 1004172
06:00+25ne118391 0.1 100349
09:00+28n117085 0.0 1004498
12:00+34wnw2245100 0.0 10031298
15:00+39sw5332100 0.0 10001947
18:00+35w764321 0.0 10001076
21:00+24n61178100 6.8 1006404